Terug naar catalogus

COSMOS 2251 DEB

ActiefLEO
NORAD 34476·DEBRIS·🇷🇺 Russia

Gelanceerd Jun 16, 1993 vanaf Plesetsk Cosmodrome

Loading…

Volgende Passages (komende 24 uur)

TLE

VersSource: Space-Track

Epoch: Sep 14, 2026, 15:42 UTC

1 34476U 93036TV  26257.65432961  .00002470  00000-0  15609-2 0  9999
2 34476  74.0083 336.5139 0303886 136.0279 226.5464 13.84212332874539

Volg COSMOS 2251 DEB in realtime met AllMySat

Download on the App Store